Weather History for KFFT - May, 2013

Change the Weather History Date:

Thursday, May 16, 2013

  Actual Average Record
Temperature  
Mean Temperature 65 °F 64 °F  
Max Temperature 72 °F 76 °F 90 °F (1962)
Min Temperature 58 °F 52 °F 33 °F (1997)
Degree Days  
Heating Degree Days 0 4  
Month to date heating degree days 67 76  
Since 1 July heating degree days 4758 4654  
Cooling Degree Days 0 3  
Month to date cooling degree days 16 25  
Year to date cooling degree days 35 45  
Growing Degree Days 16 (Base 50)    
Moisture  
Dew Point 60 °F    
Average Humidity 76    
Maximum Humidity 100    
Minimum Humidity 52    
Precipitation  
Precipitation 0.91 in 0.16 in 1.14 in (1945)
Month to date precipitation 4.00 2.59  
Year to date precipitation 18.01 17.21  
Sea Level Pressure  
Sea Level Pressure 29.97 in    
Wind  
Wind Speed 5 mph (SW)    
Max Wind Speed 15 mph    
Max Gust Speed 20 mph    
Visibility 5 miles    
Events Fog , Rain , Thunderstorm    
T = Trace of Precipitation, MM = Missing Value Source: NWS Daily Summary

Daily Weather History Graph

Daily Weather History Graph

Search for Another Location

Airport or City:

Trip Planner

Search our weather history database for the weather conditions in past years. The results will help you decide how hot, cold, wet, or windy it might be!

Date:

Astronomy

May. 16, 2013 Rise Set
Actual Time 6:27 AM EDT 8:44 PM EDT
Civil Twilight 5:58 AM EDT 9:14 PM EDT
Nautical Twilight 5:21 AM EDT 9:51 PM EDT
Astronomical Twilight 4:41 AM EDT 10:31 PM EDT
Moon 11:58 AM EDT (5/16) 1:06 AM EDT (5/16)
Length of Visible Light 15h 16m
Length of Day
14h 16m
Waxing Crescent, 35% of the Moon is Illuminated
May 16
Waxing Crescent
May 18
First Quarter
May 25
Full
May 31
Last Quarter
Jun 8
New

Hourly Weather History & Observations

Time (EDT) Temp. Dew Point Humidity Pressure Visibility Wind Dir Wind Speed Gust Speed Precip Events Conditions
12:53 AM 66.0 °F 48.0 °F 52% 29.90 in 10.0 mi SSW 8.1 mph - N/A   Clear
1:53 AM 63.0 °F 48.0 °F 58% 29.91 in 10.0 mi SSW 5.8 mph - N/A   Clear
2:53 AM 62.1 °F 48.0 °F 60% 29.91 in 10.0 mi SSW 6.9 mph - N/A   Clear
3:53 AM 60.1 °F 48.9 °F 67% 29.90 in 10.0 mi SW 6.9 mph - N/A   Clear
4:53 AM 62.1 °F 48.9 °F 62% 29.90 in 10.0 mi SW 6.9 mph - N/A   Clear
5:53 AM 61.0 °F 51.1 °F 70% 29.90 in 10.0 mi SW 8.1 mph - N/A   Clear
6:53 AM 63.0 °F 53.1 °F 70% 29.91 in 10.0 mi SW 9.2 mph - N/A   Clear
7:53 AM 64.9 °F 54.0 °F 68% 29.93 in 10.0 mi SW 9.2 mph - N/A   Overcast
8:53 AM 66.9 °F 55.9 °F 68% 29.94 in 10.0 mi SW 10.4 mph - N/A   Overcast
9:53 AM 68.0 °F 57.9 °F 70% 29.96 in 10.0 mi SW 12.7 mph - N/A   Mostly Cloudy
10:53 AM 72.0 °F 60.1 °F 66% 29.94 in 10.0 mi WSW 9.2 mph 18.4 mph N/A   Partly Cloudy
11:20 AM 71.6 °F 60.8 °F 69% 29.96 in 10.0 mi SW 6.9 mph - N/A Thunderstorm Thunderstorm
11:31 AM 71.6 °F 60.8 °F 69% 29.96 in 10.0 mi SW 8.1 mph - N/A Thunderstorm Thunderstorm
11:53 AM 70.0 °F 61.0 °F 73% 29.96 in 10.0 mi WSW 4.6 mph - N/A Thunderstorm Overcast
11:59 AM 69.8 °F 62.6 °F 78% 29.99 in 1.0 mi SSW 15.0 mph 19.6 mph 0.15 in Rain , Thunderstorm Light Thunderstorms and Rain
12:06 PM 66.2 °F 62.6 °F 88% 29.98 in 0.8 mi SW 9.2 mph 19.6 mph 0.22 in Rain , Thunderstorm Thunderstorms and Rain
12:13 PM 66.2 °F 64.4 °F 94% 29.99 in 7.0 mi WSW 9.2 mph - 0.23 in Rain , Thunderstorm Light Thunderstorms and Rain
12:24 PM 66.2 °F 62.6 °F 88% 29.99 in 7.0 mi West 4.6 mph - 0.23 in Rain , Thunderstorm Light Thunderstorms and Rain
12:43 PM 64.4 °F 64.4 °F 100% 30.00 in 2.5 mi WNW 3.5 mph - 0.27 in Rain , Thunderstorm Rain
12:53 PM 64.9 °F 63.0 °F 93% 29.98 in 2.5 mi West 4.6 mph - 0.30 in Rain , Thunderstorm Rain
1:02 PM 64.4 °F 62.6 °F 94% 30.00 in 3.0 mi West 5.8 mph - 0.01 in Rain , Thunderstorm Rain
1:21 PM 64.4 °F 62.6 °F 94% 29.98 in 2.5 mi Calm Calm - 0.06 in Rain , Thunderstorm Rain
1:53 PM 64.0 °F 63.0 °F 96% 29.99 in 2.0 mi SW 6.9 mph - 0.14 in Rain , Thunderstorm Thunderstorms and Rain
2:21 PM 64.4 °F 62.6 °F 94% 29.99 in 1.2 mi SW 9.2 mph - 0.13 in Rain , Thunderstorm Heavy Thunderstorms and Rain
2:34 PM 64.4 °F 62.6 °F 94% 30.00 in 0.8 mi West 10.4 mph 16.1 mph 0.28 in Rain , Thunderstorm Heavy Thunderstorms and Rain
2:41 PM 64.4 °F 62.6 °F 94% 30.01 in 1.2 mi WNW 6.9 mph 16.1 mph 0.31 in Rain , Thunderstorm Thunderstorms and Rain
2:53 PM 64.0 °F 63.0 °F 96% 30.00 in 1.5 mi West 5.8 mph - 0.36 in Rain , Thunderstorm Heavy Rain
3:06 PM 64.4 °F 62.6 °F 94% 30.01 in 3.0 mi NNW 4.6 mph - 0.03 in Rain , Thunderstorm Rain
3:22 PM 64.4 °F 62.6 °F 94% 30.02 in 4.0 mi NNE 4.6 mph - 0.04 in Rain , Thunderstorm Light Rain
3:33 PM 64.4 °F 62.6 °F 94% 30.02 in 6.0 mi Calm Calm - 0.04 in Rain , Thunderstorm Light Thunderstorms and Rain
3:53 PM 64.0 °F 63.0 °F 96% 30.00 in 6.0 mi Calm Calm - 0.05 in Rain , Thunderstorm Light Rain
4:06 PM 64.4 °F 62.6 °F 94% 30.01 in 4.0 mi South 4.6 mph - 0.01 in Rain , Thunderstorm Light Rain
4:12 PM 64.4 °F 62.6 °F 94% 30.01 in 1.8 mi South 9.2 mph - 0.04 in Rain , Thunderstorm Heavy Rain
4:21 PM 64.4 °F 64.4 °F 100% 30.01 in 2.5 mi SSW 8.1 mph - 0.05 in Rain Light Rain
4:28 PM 64.4 °F 64.4 °F 100% 30.00 in 4.0 mi SSW 10.4 mph - 0.05 in Rain Light Rain
4:53 PM 66.0 °F 63.0 °F 90% 29.98 in 10.0 mi SSW 3.5 mph - 0.05 in   Mostly Cloudy
5:53 PM 66.9 °F 64.9 °F 93% 29.97 in 9.0 mi South 4.6 mph - N/A   Clear
6:53 PM 68.0 °F 64.0 °F 87% 29.96 in 10.0 mi South 3.5 mph - N/A   Clear
7:53 PM 66.9 °F 64.9 °F 93% 29.96 in 9.0 mi Calm Calm - N/A   Clear
8:53 PM 64.9 °F 64.0 °F 97% 29.96 in 4.0 mi Calm Calm - N/A   Clear
9:30 PM 62.6 °F 62.6 °F 100% 29.98 in 1.8 mi Calm Calm - N/A   Scattered Clouds
9:43 PM 62.6 °F 62.6 °F 100% 29.99 in 3.0 mi Calm Calm - N/A   Partly Cloudy
9:50 PM 62.6 °F 62.6 °F 100% 29.99 in 1.2 mi Calm Calm - N/A   Partly Cloudy
9:53 PM 63.0 °F 62.1 °F 97% 29.98 in 0.5 mi Calm Calm - N/A Fog Fog
10:09 PM 62.6 °F 60.8 °F 94% 29.99 in 0.2 mi Calm Calm - N/A Fog Fog
10:24 PM 60.8 °F 60.8 °F 100% 30.00 in 0.2 mi Calm Calm - N/A Fog Fog
10:53 PM 61.0 °F 60.1 °F 97% 29.99 in 0.2 mi Calm Calm - N/A Fog Fog
11:53 PM 59.0 °F 59.0 °F 100% 29.98 in 0.2 mi Calm Calm - 0.01 in Fog Fog